Weather in Vozhovo

Russia / Oryol Oblast     52°40′39″N   35°48′07″E
temp.,
°C
wind,
m/s
gust,
m/s
humid.,
%
clouds,
%
prec.,
mm/h
press.,
hPa
HPBL,
m
21 january, fri
fri2100:00−3ssw71495100 0.5 1005602
03:00−4s61295100 1.6 1003483
06:00−4s61196100 1.3 1001436
09:00−4ssw51195100 1.9 1000394
12:00−4sw51091100 0.1 1000525
15:00−5ssw6119199 0.1 999577
18:00−5s71492100 0.1 998597
21:00−4ssw71494100 0.8 997733
22 january, sat
sat2200:00−4ssw71394100 0.3 998638
03:00−3sw61196100 1.0 999594
06:00−4sw51095100 0.8 1000461
09:00−5ssw4996100 1.1 1003362
12:00−4sw479579 0.4 1005470
15:00−4sw3695100 0.6 1007450
18:00−9s2498100 0.1 100939
21:00−14wsw2210080 0.1 10129
23 january, sun
sun2300:00−15s1110095 0.0 10149
03:00−16sse1110098 0.1 101612
06:00−16ese119999 0.1 10199
09:00−15e239999 0.1 102240
12:00−10ese239665 0.1 1025104
15:00−9ne24965 0.1 102778
18:00−16ne2210074 0.0 103013
21:00−16ne3410093 0.0 103254
24 january, mon
mon2400:00−16nne3710087 0.0 103490
03:00−16nne399975 0.0 1034108
06:00−15nne5129888 0.0 1034183
09:00−14nne4129773 0.0 1035209
12:00−11ne51293100 0.0 1035278
15:00−9nne5994100 0.0 1033290
18:00−11nne499565 0.0 1034189
21:00−13nne499761 0.0 1034136
25 january, tue
tue2500:00−16nne249858 0.0 103447
03:00−16nne349866 0.0 103355
06:00−19nne2210073 0.0 103226
09:00−21ne2210088 0.0 103220
12:00−13ene119319 0.0 103076
15:00−11ne11945 0.0 102810
18:00−17se019936 0.0 10279
21:00−19s1110067 0.0 10269